Change the Weather History Date:

Thursday, October 11, 2012

  Actual Average (KLCH) Record (KLCH)
Temperature  
Mean Temperature 75 °F 72 °F  
Max Temperature 86 °F 82 °F 96 °F (1926)
Min Temperature 65 °F 61 °F 37 °F (1917)
Degree Days  
Heating Degree Days 0 1  
Month to date heating degree days 2  
Since 1 July heating degree days 3  
Cooling Degree Days 10 7  
Month to date cooling degree days 92  
Year to date cooling degree days 2632  
Growing Degree Days 25 (Base 50)    
Moisture  
Dew Point 66 °F    
Average Humidity 77    
Maximum Humidity 100    
Minimum Humidity 45    
Precipitation  
Precipitation 0.00 in 0.13 in 3.87 in (1970)
Month to date precipitation 1.48  
Year to date precipitation 44.96  
Snow  
Snow - 0.00 in 0.00 in ()
Month to date snowfall 0.0  
Since 1 July snowfall 0.0  
Since 1 September snowfall 0.0  
Snow Depth -    
Sea Level Pressure  
Sea Level Pressure 30.16 in    
Wind  
Wind Speed 4 mph ()    
Max Wind Speed 13 mph    
Max Gust Speed 18 mph    
Visibility 8.3 miles    
Events      
T = Trace of Precipitation, MM = Missing Value Source: Averaged Metar Reports

Daily Weather History Graph

Daily Weather History Graph

Search for Another Location

Airport or City:

Trip Planner

Search our weather history database for the weather conditions in past years. The results will help you decide how hot, cold, wet, or windy it might be!

Date:

Astronomy

Oct. 11, 2012 Rise Set
Actual Time 7:10 AM CDT 6:43 PM CDT
Civil Twilight 6:46 AM CDT 7:07 PM CDT
Nautical Twilight 6:18 AM CDT 7:35 PM CDT
Astronomical Twilight 5:50 AM CDT 8:03 PM CDT
Moon 3:06 AM CDT (10/11) 4:06 PM CDT (10/11)
Length of Visible Light 12h 21m
Length of Day
11h 33m
Waning Crescent, 18% of the Moon is Illuminated
Oct 11
Waning Crescent
Oct 15
New
Oct 21
First Quarter
Oct 29
Full
Nov 6
Last Quarter

Hourly Weather History & Observations

Time (CDT) Temp. Heat Index Dew Point Humidity Pressure Visibility Wind Dir Wind Speed Gust Speed Precip Events Conditions
12:15 AM 68.5 °F - 67.5 °F 96% 30.14 in 10.0 mi Calm Calm - N/A   Clear
12:35 AM 68.9 °F - 68.0 °F 97% 30.14 in 7.0 mi East 3.5 mph - N/A   Clear
12:55 AM 69.1 °F - 68.2 °F 97% 30.13 in 10.0 mi Calm Calm - N/A   Scattered Clouds
1:15 AM 69.6 °F - 68.4 °F 96% 30.13 in 10.0 mi East 3.5 mph - N/A   Overcast
1:35 AM 70.0 °F - 68.2 °F 94% 30.14 in 10.0 mi East 3.5 mph - N/A   Mostly Cloudy
1:55 AM 69.8 °F - 68.2 °F 95% 30.13 in 10.0 mi Calm Calm - N/A   Mostly Cloudy
2:15 AM 68.9 °F - 67.8 °F 96% 30.13 in 10.0 mi SE 3.5 mph - N/A   Mostly Cloudy
2:55 AM 68.9 °F - 68.0 °F 97% 30.13 in 7.0 mi SE 4.6 mph - N/A   Clear
3:15 AM 69.1 °F - 68.2 °F 97% 30.12 in 7.0 mi ESE 3.5 mph - N/A   Clear
3:35 AM 68.2 °F - 67.5 °F 98% 30.13 in 7.0 mi ESE 4.6 mph - N/A   Clear
3:55 AM 67.6 °F - 67.1 °F 98% 30.12 in 5.0 mi Calm Calm - N/A   Clear
4:15 AM 67.3 °F - 66.6 °F 98% 30.12 in 5.0 mi Calm Calm - N/A   Clear
4:35 AM 67.1 °F - 66.4 °F 98% 30.13 in 5.0 mi Calm Calm - N/A   Clear
4:55 AM 66.9 °F - 66.6 °F 99% 30.13 in 4.0 mi Calm Calm - N/A   Clear
5:15 AM 66.6 °F - 66.4 °F 99% 30.13 in 3.0 mi East 3.5 mph - N/A   Clear
5:35 AM 66.2 °F - 65.8 °F 99% 30.14 in 4.0 mi East 3.5 mph - N/A   Clear
6:15 AM 65.8 °F - 65.7 °F 99% 30.15 in 4.0 mi ENE 3.5 mph - N/A   Scattered Clouds
6:35 AM 65.5 °F - 65.3 °F 99% 30.15 in 4.0 mi East 4.6 mph - N/A   Clear
6:55 AM 66.2 °F - 65.8 °F 99% 30.16 in 3.0 mi East 5.8 mph - N/A   Clear
7:15 AM 65.7 °F - 65.7 °F 100% 30.16 in 1.8 mi East 4.6 mph - N/A   Mist
7:35 AM 65.8 °F - 65.8 °F 100% 30.16 in 1.8 mi East 4.6 mph - N/A   Mist
7:55 AM 67.1 °F - 66.7 °F 99% 30.17 in 3.0 mi ESE 5.8 mph - N/A   Clear
8:15 AM 67.8 °F - 67.5 °F 99% 30.18 in 2.5 mi ESE 4.6 mph - N/A   Scattered Clouds
8:35 AM 68.5 °F - 68.2 °F 99% 30.18 in 3.0 mi ESE 5.8 mph - N/A   Clear
8:55 AM 69.8 °F - 68.5 °F 96% 30.19 in 7.0 mi ESE 4.6 mph - N/A   Clear
9:15 AM 71.8 °F - 68.0 °F 88% 30.20 in 10.0 mi ESE 5.8 mph - N/A   Clear
9:35 AM 74.3 °F - 67.5 °F 79% 30.21 in 10.0 mi ESE 8.1 mph - N/A   Clear
9:55 AM 76.5 °F - 66.9 °F 72% 30.21 in 10.0 mi ESE 8.1 mph - N/A   Clear
10:15 AM 77.4 °F - 65.5 °F 67% 30.22 in 10.0 mi ESE 10.4 mph - N/A   Clear
10:35 AM 78.8 °F - 65.7 °F 64% 30.22 in 10.0 mi ESE 11.5 mph - N/A   Clear
10:55 AM 79.9 °F - 64.9 °F 60% 30.22 in 10.0 mi SE 12.7 mph 17.3 mph N/A   Clear
11:15 AM 81.0 °F 82.7 °F 64.8 °F 58% 30.21 in 10.0 mi ESE 10.4 mph 17.3 mph N/A   Clear
11:35 AM 81.7 °F 83.3 °F 64.6 °F 56% 30.21 in 10.0 mi ESE 10.4 mph 18.4 mph N/A   Clear
11:55 AM 82.6 °F 84.1 °F 64.2 °F 54% 30.21 in 10.0 mi SE 8.1 mph - N/A   Clear
12:15 PM 83.3 °F 84.8 °F 64.4 °F 53% 30.20 in 10.0 mi SSE 6.9 mph - N/A   Clear
1:15 PM 84.2 °F 85.0 °F 62.8 °F 48% 30.18 in 10.0 mi SE 8.1 mph - N/A   Clear
1:35 PM 85.1 °F 86.1 °F 63.5 °F 48% 30.17 in 10.0 mi SE 6.9 mph - N/A   Clear
1:55 PM 85.1 °F 85.9 °F 63.0 °F 47% 30.16 in 10.0 mi East 6.9 mph - N/A   Clear
2:15 PM 85.3 °F 86.4 °F 63.7 °F 48% 30.15 in 10.0 mi East 9.2 mph - N/A   Clear
2:35 PM 85.1 °F 85.9 °F 62.6 °F 47% 30.15 in 10.0 mi SSE 6.9 mph - N/A   Clear
2:55 PM 85.5 °F 86.3 °F 63.0 °F 47% 30.15 in 10.0 mi East 6.9 mph - N/A   Clear
3:15 PM 85.8 °F 86.6 °F 63.1 °F 46% 30.14 in 10.0 mi SE 9.2 mph - N/A   Clear
3:35 PM 85.6 °F 86.1 °F 62.2 °F 45% 30.14 in 10.0 mi SE 8.1 mph - N/A   Clear
3:55 PM 85.1 °F 85.9 °F 62.6 °F 47% 30.13 in 10.0 mi SE 8.1 mph - N/A   Clear
4:15 PM 85.8 °F 86.6 °F 63.1 °F 46% 30.14 in 10.0 mi SSE 8.1 mph - N/A   Scattered Clouds
4:35 PM 85.1 °F 85.9 °F 62.6 °F 47% 30.13 in 10.0 mi SE 4.6 mph - N/A   Clear
5:15 PM 84.6 °F 85.4 °F 62.6 °F 48% 30.12 in 10.0 mi South 3.5 mph - N/A   Scattered Clouds
5:35 PM 83.8 °F 84.7 °F 62.6 °F 49% 30.13 in 10.0 mi SSE 4.6 mph - N/A   Clear
5:55 PM 83.3 °F 84.3 °F 63.0 °F 50% 30.13 in 10.0 mi South 3.5 mph - N/A   Scattered Clouds
6:15 PM 82.2 °F 83.7 °F 64.2 °F 54% 30.13 in 10.0 mi South 3.5 mph - N/A   Mostly Cloudy
6:35 PM 79.3 °F - 64.0 °F 59% 30.14 in 10.0 mi SSW 4.6 mph - N/A   Mostly Cloudy
6:55 PM 77.7 °F - 63.9 °F 62% 30.14 in 10.0 mi South 4.6 mph - N/A   Scattered Clouds
7:15 PM 75.6 °F - 64.6 °F 69% 30.15 in 10.0 mi Calm Calm - N/A   Clear
7:35 PM 75.2 °F - 64.9 °F 70% 30.15 in 10.0 mi South 3.5 mph - N/A   Clear
8:15 PM 73.9 °F - 64.8 °F 73% 30.16 in 10.0 mi South 3.5 mph - N/A   Clear
8:35 PM 73.2 °F - 65.3 °F 76% 30.16 in 10.0 mi SSE 3.5 mph - N/A   Clear
8:55 PM 72.9 °F - 65.5 °F 78% 30.17 in 10.0 mi Calm Calm - N/A   Clear
9:15 PM 72.1 °F - 65.5 °F 79% 30.18 in 10.0 mi Calm Calm - N/A   Clear
9:55 PM 71.2 °F - 65.8 °F 83% 30.18 in 10.0 mi SE 3.5 mph - N/A   Clear
10:15 PM 71.4 °F - 66.2 °F 84% 30.19 in 10.0 mi SE 3.5 mph - N/A   Clear
10:55 PM 70.7 °F - 66.7 °F 87% 30.19 in 10.0 mi SE 3.5 mph - N/A   Clear
11:15 PM 69.8 °F - 66.6 °F 89% 30.19 in 10.0 mi ESE 4.6 mph - N/A   Clear
11:35 PM 69.1 °F - 66.6 °F 92% 30.18 in 10.0 mi ESE 3.5 mph - N/A   Clear
11:55 PM 69.8 °F - 66.9 °F 91% 30.18 in 10.0 mi SE 3.5 mph - N/A   Clear